When you browse on this site, cookies collect data to enhance your experience and personalize the content and advertising you see.
Visit our Privacy Policy to learn more. By continuing to use the site, you agree to this use of cookies and data.
  • In Lithuania
  • List of Countries
  • For 7 days
  • Water Temperature
  • Satellite Maps
  • Weather Map
  • Weather Widgets
  • user-avatar
    Login

    Hourly Weather Uige

    Today, 20 February, Wednesday

    Time Temperature Precipitation Wind Pressure Humidity
    00:00 +20°C° 0.4 mm 0 mps 690 mmHg 97%
    01:00 +20°C° 0 mm 0 mps 690 mmHg 97%
    02:00 +20°C° 0.6 mm 0 mps 690 mmHg 97%
    03:00 +20°C° 0.6 mm 0 mps 690 mmHg 98%
    04:00 +19°C° 0.6 mm 0 mps 690 mmHg 98%
    05:00 +20°C° 0.4 mm 0 mps 690 mmHg 98%
    06:00 +20°C° 0.4 mm 0 mps 690 mmHg 97%
    07:00 +21°C° 0 mm 0 mps 691 mmHg 96%
    08:00 +22°C° 0.4 mm 0 mps 691 mmHg 91%
    09:00 +24°C° 0.4 mm 0 mps 691 mmHg 85%
    10:00 +26°C° 0.4 mm 0 mps 691 mmHg 80%
    11:00 +28°C° 0.9 mm 1 mps 691 mmHg 78%
    12:00 +29°C° 0.9 mm 1 mps 690 mmHg 76%
    13:00 +29°C° 0.9 mm 1 mps 690 mmHg 74%
    14:00 +29°C° 0.3 mm 1 mps 689 mmHg 75%
    15:00 +29°C° 0.3 mm 1 mps 689 mmHg 75%
    16:00 +28°C° 0.3 mm 1 mps 689 mmHg 76%
    17:00 +27°C° 0.8 mm 1 mps 689 mmHg 82%
    18:00 +25°C° 0.8 mm 1 mps 689 mmHg 88%
    19:00 +24°C° 0.8 mm 1 mps 689 mmHg 94%
    20:00 +23°C° 0.1 mm 1 mps 690 mmHg 95%
    21:00 +23°C° 0.1 mm 1 mps 691 mmHg 95%
    22:00 +23°C° 0.1 mm 1 mps 691 mmHg 95%
    23:00 +22°C° 0.2 mm 1 mps 691 mmHg 95%

    Tomorrow, 21 February, Thursday

    Time Temperature Precipitation Wind Pressure Humidity
    00:00 +22°C° 0.2 mm 1 mps 691 mmHg 95%
    01:00 +22°C° 0.2 mm 1 mps 691 mmHg 95%
    02:00 +22°C° 0.3 mm 1 mps 691 mmHg 96%
    03:00 +22°C° 0.3 mm 1 mps 691 mmHg 97%
    04:00 +22°C° 0.3 mm 1 mps 691 mmHg 98%
    05:00 +22°C° 0.3 mm 1 mps 691 mmHg 98%
    06:00 +22°C° 0.3 mm 1 mps 691 mmHg 97%
    07:00 +22°C° 0.3 mm 1 mps 692 mmHg 97%
    08:00 +24°C° 0.5 mm 1 mps 692 mmHg 89%
    09:00 +26°C° 0.5 mm 1 mps 693 mmHg 80%
    10:00 +28°C° 0.5 mm 1 mps 694 mmHg 72%
    11:00 +28°C° 1.6 mm 1 mps 693 mmHg 75%
    12:00 +28°C° 1.6 mm 1 mps 692 mmHg 78%
    13:00 +27°C° 1.6 mm 1 mps 692 mmHg 82%
    14:00 +27°C° 1.3 mm 1 mps 691 mmHg 84%
    15:00 +27°C° 1.3 mm 1 mps 691 mmHg 87%
    16:00 +26°C° 1.3 mm 2 mps 691 mmHg 89%
    17:00 +25°C° 1 mm 1 mps 691 mmHg 92%
    18:00 +24°C° 1 mm 1 mps 691 mmHg 95%
    19:00 +23°C° 1 mm 1 mps 692 mmHg 98%
    20:00 +22°C° 0 mm 1 mps 692 mmHg 98%
    21:00 +22°C° 0 mm 1 mps 692 mmHg 99%
    22:00 +22°C° 0 mm 1 mps 693 mmHg 99%
    23:00 +22°C° 0 mm 1 mps 693 mmHg 99%

    Day after tomorrow, 22 February, Friday

    Time Temperature Precipitation Wind Pressure Humidity
    00:00 +22°C° 0 mm 1 mps 692 mmHg 99%
    01:00 +22°C° 0 mm 1 mps 692 mmHg 99%
    02:00 +22°C° 0 mm 1 mps 692 mmHg 99%
    03:00 +21°C° 0 mm 1 mps 691 mmHg 99%
    04:00 +21°C° 0 mm 1 mps 691 mmHg 98%
    05:00 +21°C° 0.1 mm 1 mps 692 mmHg 98%
    06:00 +21°C° 0.1 mm 1 mps 692 mmHg 98%
    07:00 +19°C° 0.1 mm 0 mps 693 mmHg 98%
    08:00 +20°C° 0.3 mm 0 mps 693 mmHg 96%
    09:00 +21°C° 0.3 mm 0 mps 694 mmHg 94%
    10:00 +21°C° 0.3 mm 0 mps 694 mmHg 92%
    11:00 +24°C° 0.1 mm 1 mps 694 mmHg 85%
    12:00 +26°C° 0.1 mm 1 mps 694 mmHg 79%
    13:00 +27°C° 0.1 mm 1 mps 693 mmHg 72%
    14:00 +26°C° 0.4 mm 1 mps 692 mmHg 75%
    15:00 +26°C° 0.4 mm 1 mps 692 mmHg 78%
    16:00 +26°C° 0.4 mm 1 mps 691 mmHg 81%
    17:00 +25°C° 0.3 mm 1 mps 691 mmHg 85%
    18:00 +24°C° 0.3 mm 1 mps 691 mmHg 90%
    19:00 +20°C° 0.3 mm 0 mps 691 mmHg 95%
    20:00 +22°C° 0 mm 1 mps 691 mmHg 95%
    21:00 +22°C° 0 mm 1 mps 692 mmHg 95%
    22:00 +22°C° 0 mm 1 mps 692 mmHg 95%
    23:00 +21°C° 0 mm 1 mps 692 mmHg 94%

    23 February, Saturday

    Time Temperature Precipitation Wind Pressure Humidity
    00:00 +21°C° 0 mm 1 mps 691 mmHg 94%
    01:00 +21°C° 0 mm 1 mps 691 mmHg 94%
    02:00 +21°C° 0 mm 1 mps 690 mmHg 94%
    03:00 +18°C° 0 mm 0 mps 690 mmHg 94%
    04:00 +18°C° 0 mm 0 mps 690 mmHg 94%
    05:00 +18°C° 0 mm 0 mps 690 mmHg 94%
    06:00 +19°C° 0 mm 0 mps 691 mmHg 93%
    07:00 +19°C° 0 mm 0 mps 691 mmHg 93%
    08:00 +22°C° 0 mm 0 mps 692 mmHg 81%
    09:00 +27°C° 0 mm 1 mps 693 mmHg 70%
    10:00 +29°C° 0 mm 1 mps 693 mmHg 58%
    11:00 +30°C° 0 mm 1 mps 693 mmHg 54%
    12:00 +31°C° 0 mm 1 mps 692 mmHg 50%
    13:00 +32°C° 0 mm 2 mps 691 mmHg 45%
    14:00 +32°C° 0.1 mm 2 mps 690 mmHg 48%
    15:00 +32°C° 0.1 mm 2 mps 690 mmHg 51%
    16:00 +31°C° 0.1 mm 2 mps 689 mmHg 54%
    17:00 +29°C° 0.2 mm 2 mps 689 mmHg 63%
    18:00 +27°C° 0.2 mm 1 mps 689 mmHg 72%
    19:00 +24°C° 0.2 mm 1 mps 689 mmHg 81%
    20:00 +22°C° 0.1 mm 0 mps 690 mmHg 83%
    21:00 +21°C° 0.1 mm 0 mps 690 mmHg 84%
    22:00 +21°C° 0.1 mm 0 mps 691 mmHg 86%
    23:00 +20°C° 0 mm 0 mps 690 mmHg 88%

    24 February, Sunday

    Time Temperature Precipitation Wind Pressure Humidity
    00:00 +20°C° 0 mm 0 mps 690 mmHg 90%
    01:00 +19°C° 0 mm 0 mps 690 mmHg 92%
    02:00 +19°C° 0 mm 0 mps 689 mmHg 94%
    03:00 +19°C° 0 mm 0 mps 689 mmHg 95%
    04:00 +19°C° 0 mm 0 mps 689 mmHg 97%
    05:00 +19°C° 0 mm 0 mps 689 mmHg 96%
    06:00 +20°C° 0 mm 0 mps 690 mmHg 94%
    07:00 +22°C° 0 mm 1 mps 690 mmHg 93%
    08:00 +23°C° 0 mm 0 mps 691 mmHg 82%
    09:00 +27°C° 0 mm 0 mps 691 mmHg 70%
    10:00 +30°C° 0 mm 0 mps 692 mmHg 59%
    11:00 +32°C° 0 mm 1 mps 691 mmHg 55%
    12:00 +32°C° 0 mm 1 mps 690 mmHg 51%
    13:00 +34°C° 0 mm 2 mps 690 mmHg 47%
    14:00 +32°C° 0.1 mm 2 mps 689 mmHg 50%
    15:00 +32°C° 0.1 mm 2 mps 689 mmHg 53%
    16:00 +31°C° 0.1 mm 2 mps 688 mmHg 56%
    17:00 +29°C° 0.7 mm 2 mps 688 mmHg 69%
    18:00 +26°C° 0.7 mm 1 mps 688 mmHg 82%
    19:00 +24°C° 0.7 mm 1 mps 689 mmHg 95%
    20:00 +23°C° 0.1 mm 1 mps 689 mmHg 96%
    21:00 +23°C° 0.1 mm 1 mps 690 mmHg 97%
    22:00 +22°C° 0.1 mm 1 mps 690 mmHg 98%
    23:00 +22°C° 0.2 mm 1 mps 690 mmHg 98%

    25 February, Monday

    Time Temperature Precipitation Wind Pressure Humidity
    00:00 +22°C° 0.2 mm 1 mps 689 mmHg 99%
    01:00 +22°C° 0.2 mm 1 mps 689 mmHg 99%
    02:00 +22°C° 0 mm 1 mps 689 mmHg 99%
    03:00 +22°C° 0 mm 1 mps 689 mmHg 99%
    04:00 +22°C° 0 mm 1 mps 689 mmHg 98%
    05:00 +21°C° 0 mm 0 mps 689 mmHg 98%
    06:00 +21°C° 0 mm 0 mps 690 mmHg 97%
    07:00 +21°C° 0 mm 0 mps 690 mmHg 97%
    08:00 +23°C° 0 mm 0 mps 691 mmHg 86%
    09:00 +25°C° 0 mm 0 mps 691 mmHg 76%
    10:00 +30°C° 0 mm 1 mps 692 mmHg 66%
    11:00 +30°C° 0 mm 1 mps 691 mmHg 60%
    12:00 +31°C° 0 mm 2 mps 690 mmHg 53%
    13:00 +32°C° 0 mm 2 mps 689 mmHg 47%
    14:00 +32°C° 0.1 mm 2 mps 689 mmHg 48%
    15:00 +32°C° 0.1 mm 2 mps 689 mmHg 50%
    16:00 +32°C° 0.1 mm 2 mps 688 mmHg 52%
    17:00 +29°C° 0 mm 2 mps 689 mmHg 63%
    18:00 +27°C° 0 mm 1 mps 689 mmHg 74%
    19:00 +24°C° 0 mm 1 mps 689 mmHg 84%
    20:00 +24°C° 0 mm 1 mps 689 mmHg 89%
    21:00 +23°C° 0 mm 1 mps 690 mmHg 93%
    22:00 +22°C° 0 mm 1 mps 690 mmHg 98%
    23:00 +22°C° 0 mm 1 mps 690 mmHg 98%
    Show more